Regional Weather Roundup
Issued by NWS Cleveland, OH

Home | Current Version | Previous Version | Graphics & Text | Print | Product List | Glossary On
Versions: 1 2 3 4 5 6 7 8 9 10 11 12 13 14 15 16 17 18 19 20 21 22 23 24 25 26 27 28 29 30 31 32 33 34 35 36 37 38 39 40 41 42 43 44 45 46 47 48 49 50
000
ASUS41 KCLE 222000
RWRCLE
OHIO REGIONAL WEATHER ROUNDUP
NATIONAL WEATHER SERVICE WILMINGTON, OH
400 PM EDT TUE JUL 22 2014

NOTE: "FAIR" INDICATES FEW OR NO CLOUDS BELOW 12,000 FEET WITH NO
SIGNIFICANT WEATHER AND/OR OBSTRUCTIONS TO VISIBILITY.

OHZ001>008-015>018-024>027-034-035-043-044-222100-
   NORTHWEST OHIO

CITY           SKY/WX    TMP DP  RH WIND       PRES   REMARKS
DEFIANCE       MOSUNNY   90  65  43 SW10G17   30.03F HX  92
FINDLAY        MOSUNNY   90  68  48 SW17      30.03F HX  94
TOLEDO EXPRESS SUNNY     91  64  40 SW13G21   30.02F HX  92
TOLEDO METCALF SUNNY     91  63  39 SW15G22   30.03S HX  92
LIMA           MOSUNNY   89  65  44 S13       30.05F HX  91
$$

OHZ009>014-019>023-028>033-038-089-222100-
   NORTHEAST OHIO

CITY           SKY/WX    TMP DP  RH WIND       PRES   REMARKS
CLE-HOPKINS    MOSUNNY   87  67  51 SW10      30.05F HX  90
CLE-LAKEFRONT  MOSUNNY   84  71  65 N5        30.02F
CUY CO. ARPT   MOSUNNY   86  72  62 NW12      30.05F HX  92
LORAIN-ELYRIA  MOSUNNY   91  66  43 SW10      30.04F HX  93
ASHTABULA      SUNNY     87  66  49 SW14      30.05F
AKRON-CANTON   MOSUNNY   88  66  48 SW8       30.07F HX  90
WOOSTER        NOT AVBL
MANSFIELD      MOSUNNY   86  67  52 S10       30.08F
YOUNGSTOWN     PTSUNNY   85  67  54 S6        30.07F
$$

OHZ042-051>053-060>062-070>072-077>081-222100-
  SOUTHWEST OHIO

CITY           SKY/WX    TMP DP  RH WIND       PRES   REMARKS
CINC-COVINGTON MOSUNNY   90  66  45 SW10      30.07F HX  92
CINC-LUNKEN    MOSUNNY   90  67  46 W10       30.04F HX  93
HAMILTON       MOSUNNY   90  69  50 W8        30.06F HX  94
DAYTON         NOT AVBL
WRIGHT-PAT AFB SUNNY     89  67  47 SW8       30.05F HX  92
DAYTON GENERAL SUNNY     88  65  46 SW7       30.06F HX  90
WILMINGTON     MOSUNNY   87  67  51 S7        30.07F HX  90
$$

OHZ036-037-039>041-045>050-054>059-063>069-073>076-082>088-222100-
  CENTRAL AND SOUTHEAST OHIO

CITY           SKY/WX    TMP DP  RH WIND       PRES   REMARKS
COLUMBUS       MOSUNNY   91  66  43 S10       30.05F HX  93
OSU AIRPORT    PTSUNNY   89  68  49 W10       30.06F HX  93
BOLTON FIELD   MOSUNNY   86  73  66 S9        30.07F HX  93
RICKENBACK AFB NOT AVBL
NEWARK         SUNNY     87  69  54 SW9       30.06F HX  91
MARION         MOSUNNY   87  65  47 SW10      30.06F
LANCASTER      MOSUNNY   87  69  54 SW5       30.07F HX  91
ZANESVILLE     MOSUNNY   85  69  58 SW5       30.07F
NEW PHILLY     MOSUNNY   86  70  58 VRB7      30.07F HX  90
$$


USA.gov is the U.S. government's official web portal to all federal, state and local government web resources and services.